| time (UTC) | temp F | wind direction | speed MPH | gust MPH | rain 1hr in | rain 24hr in | rain mn in | humidity % | barometer mb |
| 20260902204754 | 91 | 108 | 5.0 | 3.0 | 0.00 | 0.00 | 0.00 | ||
| 20260902204251 | 91 | 120 | 4.0 | 6.0 | 0.00 | 0.00 | 0.00 | ||
| 20260902203249 | 91 | 136 | 3.0 | 4.0 | 0.00 | 0.00 | 0.00 | ||
| 20260902202750 | 90 | 135 | 4.0 | 6.0 | 0.00 | 0.00 | 0.00 | ||
| 20260902202246 | 91 | 131 | 6.0 | 4.0 | 0.00 | 0.00 | 0.00 | ||
| 20260902201747 | 91 | 145 | 4.0 | 7.0 | 0.00 | 0.00 | 0.00 | ||
| 20260902201243 | 91 | 170 | 4.0 | 2.0 | 0.00 | 0.00 | 0.00 | ||
| 20260902200743 | 90 | 122 | 5.0 | 3.0 | 0.00 | 0.00 | 0.00 | ||
| 20260902200239 | 91 | 131 | 3.0 | 5.0 | 0.00 | 0.00 | 0.00 | ||
| 20260902195740 | 91 | 68 | 5.0 | 9.0 | 0.00 | 0.00 | 0.00 | ||
| 20260902195237 | 91 | 153 | 2.0 | 2.0 | 0.00 | 0.00 | 0.00 | ||
| 20260902194235 | 90 | 114 | 6.0 | 9.0 | 0.00 | 0.00 | 0.00 | ||
| 20260902193735 | 91 | 152 | 4.0 | 6.0 | 0.00 | 0.00 | 0.00 | ||
| 20260902193231 | 92 | 150 | 4.0 | 5.0 | 0.00 | 0.00 | 0.00 | ||
| 20260902192731 | 91 | 139 | 6.0 | 5.0 | 0.00 | 0.00 | 0.00 | ||
| 20260902192229 | 91 | 120 | 5.0 | 5.0 | 0.00 | 0.00 | 0.00 | ||
| 20260902191730 | 92 | 136 | 6.0 | 5.0 | 0.00 | 0.00 | 0.00 | ||
| 20260902191228 | 92 | 117 | 5.0 | 7.0 | 0.00 | 0.00 | 0.00 | ||
| 20260902190729 | 93 | 149 | 6.0 | 6.0 | 0.00 | 0.00 | 0.00 | ||
| 20260902190227 | 92 | 134 | 1.0 | 2.0 | 0.00 | 0.00 | 0.00 | ||
| 20260902184727 | 93 | 215 | 1.0 | 0.0 | 0.00 | 0.00 | 0.00 | ||
| 20260902184220 | 92 | 139 | 3.0 | 4.0 | 0.00 | 0.00 | 0.00 | ||
| 20260902183720 | 92 | 153 | 3.0 | 3.0 | 0.00 | 0.00 | 0.00 | ||
| 20260902183217 | 93 | 110 | 2.0 | 2.0 | 0.00 | 0.00 | 0.00 | ||
| 20260902182216 | 92 | 56 | 0.0 | 0.0 | 0.00 | 0.00 | 0.00 | ||
| 20260902181215 | 92 | 104 | 2.0 | 2.0 | 0.00 | 0.00 | 0.00 | ||
| 20260902180716 | 92 | 83 | 3.0 | 2.0 | 0.00 | 0.00 | 0.00 | ||
| 20260902180214 | 92 | 152 | 0.0 | 0.0 | 0.00 | 0.00 | 0.00 | ||
| 20260902175715 | 92 | 100 | 0.0 | 0.0 | 0.00 | 0.00 | 0.00 | ||
| 20260902174714 | 92 | 86 | 3.0 | 3.0 | 0.00 | 0.00 | 0.00 | ||
| 20260902174212 | 90 | 89 | 4.0 | 2.0 | 0.00 | 0.00 | 0.00 | ||
| 20260902173713 | 91 | 166 | 5.0 | 4.0 | 0.00 | 0.00 | 0.00 | ||
| 20260902172712 | 92 | 149 | 5.0 | 6.0 | 0.00 | 0.00 | 0.00 | ||
| 20260902172210 | 92 | 93 | 0.0 | 1.0 | 0.00 | 0.00 | 0.00 | ||
| 20260902171209 | 92 | 24 | 0.0 | 0.0 | 0.00 | 0.00 | 0.00 | ||
| 20260902170708 | 93 | 346 | 0.0 | 0.0 | 0.00 | 0.00 | 0.00 | ||
| 20260902170206 | 92 | 97 | 2.0 | 5.0 | 0.00 | 0.00 | 0.00 | ||
| 20260902165205 | 92 | 82 | 0.0 | 0.0 | 0.00 | 0.00 | 0.00 | ||
| 20260902164706 | 91 | 82 | 0.0 | 0.0 | 0.00 | 0.00 | 0.00 | ||
| 20260902164204 | 92 | 79 | 0.0 | 0.0 | 0.00 | 0.00 | 0.00 | ||
| 20260902163705 | 91 | 93 | 3.0 | 2.0 | 0.00 | 0.00 | 0.00 | ||
| 20260902163203 | 91 | 84 | 2.0 | 3.0 | 0.00 | 0.00 | 0.00 | ||
| 20260902162704 | 91 | 84 | 3.0 | 3.0 | 0.00 | 0.00 | 0.00 | ||
| 20260902162202 | 91 | 104 | 2.0 | 2.0 | 0.00 | 0.00 | 0.00 | ||
| 20260902161703 | 91 | 93 | 3.0 | 2.0 | 0.00 | 0.00 | 0.00 | ||
| 20260902160701 | 91 | 245 | 0.0 | 0.0 | 0.00 | 0.00 | 0.00 | ||
| 20260902160159 | 91 | 322 | 0.0 | 0.0 | 0.00 | 0.00 | 0.00 | ||
| 20260902155659 | 91 | 80 | 2.0 | 2.0 | 0.00 | 0.00 | 0.00 | ||
| 20260902155157 | 90 | 77 | 1.0 | 1.0 | 0.00 | 0.00 | 0.00 | ||
| 20260902154658 | 90 | 122 | 0.0 | 3.0 | 0.00 | 0.00 | 0.00 | ||
| 20260902154156 | 90 | 124 | 3.0 | 2.0 | 0.00 | 0.00 | 0.00 | ||
| 20260902153657 | 90 | 17 | 1.0 | 0.0 | 0.00 | 0.00 | 0.00 | ||
| 20260902153154 | 89 | 48 | 2.0 | 0.0 | 0.00 | 0.00 | 0.00 | ||
| 20260902152655 | 88 | 117 | 3.0 | 2.0 | 0.00 | 0.00 | 0.00 | ||
| 20260902152151 | 88 | 105 | 2.0 | 1.0 | 0.00 | 0.00 | 0.00 | ||
| 20260902151653 | 87 | 69 | 2.0 | 0.0 | 0.00 | 0.00 | 0.00 | ||
| 20260902145746 | 87 | 62 | 0.0 | 0.0 | 0.00 | 0.01 | 0.00 | ||
| 20260902145247 | 86 | 70 | 0.0 | 0.0 | 0.00 | 0.01 | 0.00 | ||
| 20260902144744 | 86 | 131 | 2.0 | 3.0 | 0.00 | 0.01 | 0.00 | ||
| 20260902144245 | 86 | 72 | 0.0 | 0.0 | 0.00 | 0.01 | 0.00 | ||
| 20260902143744 | 85 | 72 | 0.0 | 0.0 | 0.00 | 0.01 | 0.00 | ||
| 20260902143244 | 85 | 90 | 2.0 | 2.0 | 0.00 | 0.01 | 0.00 | ||
| 20260902142742 | 85 | 52 | 0.0 | 0.0 | 0.00 | 0.01 | 0.00 | ||
| 20260902142243 | 84 | 52 | 1.0 | 0.0 | 0.00 | 0.01 | 0.00 | ||
| 20260902141739 | 83 | 4 | 0.0 | 0.0 | 0.00 | 0.01 | 0.00 | ||
| 20260902141240 | 83 | 4 | 0.0 | 0.0 | 0.00 | 0.01 | 0.00 | ||
| 20260902140239 | 83 | 23 | 0.0 | 0.0 | 0.00 | 0.01 | 0.00 | ||
| 20260902135735 | 82 | 94 | 0.0 | 0.0 | 0.00 | 0.01 | 0.00 | ||
| 20260902135236 | 82 | 94 | 0.0 | 0.0 | 0.00 | 0.01 | 0.00 | ||
| 20260902134733 | 82 | 115 | 0.0 | 0.0 | 0.00 | 0.01 | 0.00 | ||
| 20260902134234 | 81 | 115 | 0.0 | 0.0 | 0.00 | 0.01 | 0.00 | ||
| 20260902133731 | 81 | 115 | 0.0 | 0.0 | 0.00 | 0.01 | 0.00 | ||
| 20260902133232 | 81 | 115 | 0.0 | 0.0 | 0.00 | 0.01 | 0.00 | ||
| 20260902132729 | 81 | 138 | 0.0 | 0.0 | 0.00 | 0.01 | 0.00 | ||
| 20260902132230 | 80 | 214 | 0.0 | 0.0 | 0.00 | 0.01 | 0.00 | ||
| 20260902131727 | 80 | 214 | 0.0 | 0.0 | 0.00 | 0.01 | 0.00 | ||
| 20260902131228 | 80 | 214 | 0.0 | 0.0 | 0.00 | 0.01 | 0.00 | ||
| 20260902125320 | 79 | 214 | 0.0 | 0.0 | 0.00 | 0.01 | 0.00 | ||
| 20260902125240 | 79 | 214 | 0.0 | 0.0 | 0.00 | 0.01 | 0.00 | ||
| 20260902124717 | 79 | 214 | 0.0 | 0.0 | 0.00 | 0.01 | 0.00 | ||
| 20260902124216 | 78 | 214 | 0.0 | 0.0 | 0.00 | 0.01 | 0.00 | ||
| 20260902122703 | 78 | 214 | 0.0 | 0.0 | 0.00 | 0.01 | 0.00 | ||
| 20260902115152 | 76 | 214 | 0.0 | 0.0 | 0.00 | 0.01 | 0.00 | ||
| 20260902115015 | 76 | 214 | 0.0 | 0.0 | 0.00 | 0.01 | 0.00 | ||
| 20260902114649 | 76 | 214 | 0.0 | 0.0 | 0.00 | 0.01 | 0.00 | ||
| 20260902114512 | 75 | 214 | 0.0 | 0.0 | 0.00 | 0.01 | 0.00 | ||
| 20260902114247 | 75 | 214 | 0.0 | 0.0 | 0.00 | 0.01 | 0.00 | ||
| 20260902114150 | 75 | 214 | 0.0 | 0.0 | 0.00 | 0.01 | 0.00 | ||
| 20260902113643 | 75 | 214 | 0.0 | 0.0 | 0.00 | 0.01 | 0.00 | ||
| 20260902112640 | 74 | 214 | 0.0 | 0.0 | 0.00 | 0.01 | 0.00 | ||
| 20260902112459 | 74 | 214 | 0.0 | 0.0 | 0.00 | 0.01 | 0.00 | ||
| 20260902112329 | 74 | 214 | 0.0 | 0.0 | 0.00 | 0.01 | 0.00 | ||
| 20260902111636 | 74 | 214 | 0.0 | 0.0 | 0.00 | 0.01 | 0.00 | ||
| 20260902110250 | 74 | 214 | 0.0 | 0.0 | 0.00 | 0.01 | 0.00 | ||
| 20260902110215 | 74 | 214 | 0.0 | 0.0 | 0.00 | 0.01 | 0.00 | ||
| 20260902110134 | 74 | 214 | 0.0 | 0.0 | 0.00 | 0.01 | 0.00 | ||
| 20260902103914 | 75 | 214 | 0.0 | 0.0 | 0.00 | 0.01 | 0.00 | ||
| 20260902103746 | 75 | 214 | 0.0 | 0.0 | 0.00 | 0.01 | 0.00 | ||
| 20260902103711 | 75 | 214 | 0.0 | 0.0 | 0.00 | 0.01 | 0.00 | ||
| 20260902103624 | 75 | 214 | 0.0 | 0.0 | 0.00 | 0.01 | 0.00 | ||
| 20260902103337 | 75 | 214 | 0.0 | 0.0 | 0.00 | 0.01 | 0.00 | ||
| 20260902103100 | 75 | 214 | 0.0 | 0.0 | 0.00 | 0.01 | 0.00 | ||
| 20260902103023 | 75 | 214 | 0.0 | 0.0 | 0.00 | 0.01 | 0.00 | ||
| 20260902102119 | 74 | 214 | 0.0 | 0.0 | 0.00 | 0.01 | 0.00 | ||
| 20260902101730 | 75 | 214 | 0.0 | 0.0 | 0.00 | 0.01 | 0.00 | ||
| 20260902101648 | 75 | 214 | 0.0 | 0.0 | 0.00 | 0.01 | 0.00 | ||
| 20260902101614 | 75 | 214 | 0.0 | 0.0 | 0.00 | 0.01 | 0.00 | ||
| 20260902101115 | 74 | 214 | 0.0 | 0.0 | 0.00 | 0.01 | 0.00 | ||
| 20260902101015 | 75 | 214 | 0.0 | 0.0 | 0.00 | 0.01 | 0.00 | ||
| 20260902101013 | 75 | 214 | 0.0 | 0.0 | 0.00 | 0.01 | 0.00 | ||
| 20260902100834 | 75 | 214 | 0.0 | 0.0 | 0.00 | 0.01 | 0.00 | ||
| 20260902100738 | 75 | 214 | 0.0 | 0.0 | 0.00 | 0.01 | 0.00 | ||
| 20260902100642 | 75 | 214 | 0.0 | 0.0 | 0.00 | 0.01 | 0.00 | ||
| 20260902100611 | 75 | 214 | 0.0 | 0.0 | 0.00 | 0.01 | 0.00 | ||
| 20260902100314 | 75 | 214 | 0.0 | 0.0 | 0.00 | 0.01 | 0.00 | ||
| 20260902100242 | 75 | 214 | 0.0 | 0.0 | 0.00 | 0.01 | 0.00 | ||
| 20260902100111 | 75 | 214 | 0.0 | 0.0 | 0.00 | 0.01 | 0.00 | ||
| 20260902094833 | 75 | 214 | 0.0 | 0.0 | 0.00 | 0.01 | 0.00 | ||
| 20260902094808 | 76 | 214 | 0.0 | 0.0 | 0.00 | 0.01 | 0.00 | ||
| 20260902094746 | 75 | 214 | 0.0 | 0.0 | 0.00 | 0.01 | 0.00 | ||
| 20260902094737 | 76 | 214 | 0.0 | 0.0 | 0.00 | 0.01 | 0.00 | ||
| 20260902094059 | 75 | 214 | 0.0 | 0.0 | 0.00 | 0.01 | 0.00 | ||
| 20260902093134 | 76 | 214 | 0.0 | 0.0 | 0.00 | 0.01 | 0.00 | ||
| 20260902093057 | 76 | 214 | 0.0 | 0.0 | 0.00 | 0.01 | 0.00 | ||
| 20260902091552 | 75 | 214 | 0.0 | 0.0 | 0.00 | 0.01 | 0.00 | ||
| 20260902083721 | 75 | 214 | 0.0 | 0.0 | 0.00 | 0.01 | 0.00 | ||
| 20260902083646 | 75 | 214 | 0.0 | 0.0 | 0.00 | 0.01 | 0.00 | ||
| 20260902083541 | 75 | 214 | 0.0 | 0.0 | 0.00 | 0.01 | 0.00 | ||
| 20260902083436 | 75 | 214 | 0.0 | 0.0 | 0.00 | 0.01 | 0.00 | ||
| 20260902083256 | 75 | 214 | 0.0 | 0.0 | 0.00 | 0.01 | 0.00 | ||
| 20260902082607 | 75 | 214 | 0.0 | 0.0 | 0.00 | 0.01 | 0.00 | ||
| 20260902082535 | 75 | 214 | 0.0 | 0.0 | 0.00 | 0.01 | 0.00 | ||
| 20260902081458 | 75 | 214 | 0.0 | 0.0 | 0.00 | 0.01 | 0.00 | ||
| 20260902081331 | 75 | 214 | 0.0 | 0.0 | 0.00 | 0.01 | 0.00 | ||
| 20260902081108 | 75 | 214 | 0.0 | 0.0 | 0.00 | 0.01 | 0.00 | ||
| 20260902081033 | 75 | 214 | 0.0 | 0.0 | 0.00 | 0.01 | 0.00 | ||
| 20260902080246 | 76 | 214 | 0.0 | 0.0 | 0.00 | 0.01 | 0.00 | ||
| 20260902080115 | 76 | 214 | 0.0 | 0.0 | 0.00 | 0.01 | 0.00 | ||
| 20260902080031 | 76 | 214 | 0.0 | 0.0 | 0.00 | 0.01 | 0.00 | ||
| 20260902074524 | 75 | 214 | 0.0 | 0.0 | 0.00 | 0.01 | 0.00 | ||
| 20260902073520 | 76 | 214 | 0.0 | 0.0 | 0.00 | 0.01 | 0.00 | ||
| 20260902072516 | 76 | 214 | 0.0 | 0.0 | 0.00 | 0.01 | 0.00 | ||
| 20260902071511 | 76 | 214 | 0.0 | 0.0 | 0.00 | 0.01 | 0.00 | ||
| 20260902071218 | 76 | 214 | 0.0 | 0.0 | 0.00 | 0.01 | 0.00 | ||
| 20260902071049 | 76 | 214 | 0.0 | 0.0 | 0.00 | 0.01 | 0.00 | ||
| 20260902071011 | 76 | 214 | 0.0 | 0.0 | 0.00 | 0.01 | 0.00 | ||
| 20260902065321 | 75 | 214 | 0.0 | 0.0 | 0.00 | 0.01 | 0.00 | ||
| 20260902065011 | 75 | 214 | 0.0 | 0.0 | 0.00 | 0.01 | 0.00 | ||
| 20260902064511 | 76 | 214 | 0.0 | 0.0 | 0.00 | 0.01 | 0.00 | ||
| 20260902064006 | 76 | 214 | 0.0 | 0.0 | 0.00 | 0.01 | 0.00 | ||
| 20260902063552 | 76 | 214 | 0.0 | 0.0 | 0.00 | 0.00 | 0.01 | ||
| 20260902063519 | 76 | 214 | 0.0 | 0.0 | 0.00 | 0.00 | 0.01 | ||
| 20260902063005 | 76 | 214 | 0.0 | 0.0 | 0.00 | 0.00 | 0.01 | ||
| 20260902062042 | 76 | 214 | 0.0 | 0.0 | 0.00 | 0.00 | 0.01 | ||
| 20260902062004 | 76 | 214 | 0.0 | 0.0 | 0.00 | 0.00 | 0.01 | ||
| 20260902061458 | 76 | 214 | 0.0 | 0.0 | 0.00 | 0.00 | 0.01 | ||
| 20260902060503 | 75 | 214 | 0.0 | 0.0 | 0.00 | 0.00 | 0.01 | ||
| 20260902055958 | 76 | 214 | 0.0 | 0.0 | 0.00 | 0.00 | 0.01 | ||
| 20260902055454 | 76 | 214 | 0.0 | 0.0 | 0.00 | 0.00 | 0.01 | ||
| 20260902055037 | 76 | 214 | 0.0 | 0.0 | 0.00 | 0.00 | 0.01 | ||
| 20260902054955 | 76 | 214 | 0.0 | 0.0 | 0.00 | 0.00 | 0.01 | ||
| 20260902054451 | 76 | 214 | 0.0 | 0.0 | 0.00 | 0.00 | 0.01 | ||
| 20260902053952 | 76 | 214 | 0.0 | 0.0 | 0.00 | 0.00 | 0.01 | ||
| 20260902053450 | 76 | 214 | 0.0 | 0.0 | 0.00 | 0.00 | 0.01 | ||
| 20260902053324 | 76 | 214 | 0.0 | 0.0 | 0.00 | 0.00 | 0.01 | ||
| 20260902053214 | 76 | 214 | 0.0 | 0.0 | 0.00 | 0.00 | 0.01 | ||
| 20260902052950 | 76 | 214 | 0.0 | 0.0 | 0.00 | 0.00 | 0.01 | ||
| 20260902052446 | 77 | 214 | 0.0 | 0.0 | 0.00 | 0.00 | 0.01 | ||
| 20260902051946 | 77 | 214 | 0.0 | 0.0 | 0.00 | 0.00 | 0.01 | ||
| 20260902051444 | 76 | 214 | 0.0 | 0.0 | 0.00 | 0.00 | 0.01 | ||
| 20260902051026 | 77 | 214 | 0.0 | 0.0 | 0.00 | 0.00 | 0.01 | ||
| 20260902050945 | 77 | 214 | 0.0 | 0.0 | 0.00 | 0.00 | 0.01 | ||
| 20260902050736 | 76 | 214 | 0.0 | 0.0 | 0.00 | 0.00 | 0.01 | ||
| 20260902050704 | 76 | 214 | 0.0 | 0.0 | 0.00 | 0.00 | 0.01 | ||
| 20260902045943 | 76 | 214 | 0.0 | 0.0 | 0.00 | 0.00 | 0.01 | ||
| 20260902045441 | 76 | 214 | 0.0 | 0.0 | 0.00 | 0.00 | 0.01 | ||
| 20260902044944 | 77 | 214 | 0.0 | 0.0 | 0.00 | 0.00 | 0.01 | ||
| 20260902044527 | 77 | 214 | 0.0 | 0.0 | 0.00 | 0.00 | 0.01 | ||
| 20260902044523 | 76 | 214 | 0.0 | 0.0 | 0.00 | 0.00 | 0.01 | ||
| 20260902044438 | 77 | 214 | 0.0 | 0.0 | 0.00 | 0.00 | 0.01 | ||
| 20260902043939 | 77 | 214 | 0.0 | 0.0 | 0.00 | 0.00 | 0.01 | ||
| 20260902042937 | 76 | 214 | 0.0 | 0.0 | 0.00 | 0.00 | 0.01 | ||
| 20260902042433 | 77 | 214 | 0.0 | 0.0 | 0.00 | 0.00 | 0.01 | ||
| 20260902041432 | 77 | 214 | 0.0 | 0.0 | 0.00 | 0.00 | 0.01 | ||
| 20260902035931 | 78 | 214 | 0.0 | 0.0 | 0.00 | 0.00 | 0.01 | ||
| 20260902034930 | 77 | 214 | 0.0 | 0.0 | 0.00 | 0.00 | 0.01 | ||
| 20260902034427 | 77 | 214 | 0.0 | 0.0 | 0.00 | 0.00 | 0.01 | ||
| 20260902033928 | 78 | 214 | 0.0 | 0.0 | 0.00 | 0.00 | 0.01 | ||
| 20260902033504 | 78 | 214 | 0.0 | 0.0 | 0.00 | 0.00 | 0.01 | ||
| 20260902033425 | 78 | 214 | 0.0 | 0.0 | 0.00 | 0.00 | 0.01 | ||
| 20260902032926 | 78 | 214 | 0.0 | 0.0 | 0.00 | 0.00 | 0.01 | ||
| 20260902032421 | 78 | 214 | 0.0 | 0.0 | 0.00 | 0.00 | 0.01 | ||
| 20260902031921 | 77 | 214 | 0.0 | 0.0 | 0.00 | 0.00 | 0.01 | ||
| 20260902031504 | 78 | 214 | 0.0 | 0.0 | 0.00 | 0.00 | 0.01 | ||
| 20260902031417 | 78 | 214 | 0.0 | 0.0 | 0.00 | 0.00 | 0.01 | ||
| 20260902030917 | 78 | 214 | 0.0 | 0.0 | 0.00 | 0.00 | 0.01 | ||
| 20260902030409 | 78 | 214 | 0.0 | 0.0 | 0.00 | 0.00 | 0.01 | ||
| 20260902025908 | 79 | 214 | 0.0 | 0.0 | 0.00 | 0.00 | 0.01 | ||
| 20260902024904 | 78 | 214 | 0.0 | 0.0 | 0.00 | 0.00 | 0.01 | ||
| 20260902024359 | 78 | 214 | 0.0 | 0.0 | 0.00 | 0.00 | 0.01 | ||
| 20260902023900 | 78 | 214 | 0.0 | 0.0 | 0.00 | 0.00 | 0.01 | ||
| 20260902023403 | 78 | 249 | 0.0 | 0.0 | 0.00 | 0.00 | 0.01 | ||
| 20260902022857 | 78 | 249 | 0.0 | 0.0 | 0.00 | 0.00 | 0.01 | ||
| 20260902021854 | 79 | 249 | 0.0 | 0.0 | 0.00 | 0.00 | 0.01 | ||
| 20260902021349 | 79 | 249 | 0.0 | 0.0 | 0.00 | 0.00 | 0.01 | ||
| 20260902020850 | 78 | 249 | 0.0 | 0.0 | 0.00 | 0.00 | 0.01 | ||
| 20260902020346 | 80 | 249 | 0.0 | 0.0 | 0.00 | 0.00 | 0.01 | ||
| 20260902015847 | 78 | 249 | 0.0 | 0.0 | 0.00 | 0.00 | 0.01 | ||
| 20260902015346 | 79 | 325 | 0.0 | 0.0 | 0.00 | 0.00 | 0.01 | ||
| 20260902014846 | 80 | 325 | 0.0 | 0.0 | 0.00 | 0.00 | 0.01 | ||
| 20260902014343 | 79 | 325 | 0.0 | 0.0 | 0.00 | 0.00 | 0.01 | ||
| 20260902013841 | 79 | 325 | 0.0 | 0.0 | 0.00 | 0.00 | 0.01 | ||
| 20260902013337 | 79 | 325 | 0.0 | 0.0 | 0.00 | 0.00 | 0.01 | ||
| 20260902012837 | 80 | 325 | 0.0 | 0.0 | 0.00 | 0.00 | 0.01 | ||
| 20260902012333 | 80 | 325 | 0.0 | 0.0 | 0.00 | 0.00 | 0.01 | ||
| 20260902011834 | 80 | 325 | 0.0 | 0.0 | 0.00 | 0.00 | 0.01 | ||
| 20260902011326 | 80 | 325 | 0.0 | 0.0 | 0.00 | 0.00 | 0.01 | ||
| 20260902010827 | 80 | 325 | 0.0 | 0.0 | 0.00 | 0.00 | 0.01 | ||
| 20260902010323 | 80 | 325 | 0.0 | 0.0 | 0.00 | 0.00 | 0.01 | ||
| 20260902005825 | 80 | 325 | 0.0 | 0.0 | 0.00 | 0.00 | 0.01 | ||
| 20260902005318 | 81 | 325 | 0.0 | 0.0 | 0.00 | 0.00 | 0.01 | ||
| 20260902004824 | 81 | 325 | 0.0 | 0.0 | 0.00 | 0.00 | 0.01 | ||
| 20260902004317 | 81 | 325 | 0.0 | 0.0 | 0.00 | 0.00 | 0.01 | ||
| 20260902003818 | 81 | 325 | 0.0 | 0.0 | 0.00 | 0.00 | 0.01 | ||
| 20260902003314 | 81 | 325 | 0.0 | 0.0 | 0.00 | 0.00 | 0.01 | ||
| 20260902002814 | 81 | 325 | 0.0 | 0.0 | 0.00 | 0.00 | 0.01 | ||
| 20260902001812 | 82 | 325 | 0.0 | 0.0 | 0.00 | 0.00 | 0.01 | ||
| 20260902001310 | 82 | 93 | 0.0 | 1.0 | 0.00 | 0.00 | 0.01 | ||
| 20260902000811 | 82 | 93 | 0.0 | 0.0 | 0.00 | 0.00 | 0.01 | ||
| 20260902000309 | 83 | 93 | 0.0 | 0.0 | 0.00 | 0.00 | 0.01 | ||
| 20260901235810 | 82 | 93 | 0.0 | 0.0 | 0.00 | 0.00 | 0.01 | ||
| 20260901235307 | 83 | 93 | 0.0 | 0.0 | 0.00 | 0.00 | 0.01 | ||
| 20260901234806 | 83 | 93 | 0.0 | 0.0 | 0.00 | 0.00 | 0.01 | ||
| 20260901234303 | 83 | 93 | 0.0 | 0.0 | 0.00 | 0.00 | 0.01 | ||
| 20260901233802 | 83 | 93 | 0.0 | 0.0 | 0.00 | 0.00 | 0.01 | ||
| 20260901233300 | 83 | 93 | 0.0 | 0.0 | 0.00 | 0.00 | 0.01 | ||
| 20260901232258 | 83 | 122 | 2.0 | 4.0 | 0.00 | 0.00 | 0.01 | ||
| 20260901231255 | 84 | 101 | 0.0 | 0.0 | 0.00 | 0.00 | 0.01 | ||
| 20260901230252 | 85 | 145 | 2.0 | 2.0 | 0.00 | 0.00 | 0.01 | ||
| 20260901225753 | 85 | 110 | 1.0 | 3.0 | 0.00 | 0.00 | 0.01 | ||
| 20260901225251 | 85 | 120 | 1.0 | 1.0 | 0.00 | 0.00 | 0.01 | ||
| 20260901224752 | 85 | 117 | 3.0 | 2.0 | 0.00 | 0.00 | 0.01 | ||
| 20260901224245 | 85 | 113 | 1.0 | 1.0 | 0.00 | 0.00 | 0.01 | ||
| 20260901223243 | 86 | 124 | 2.0 | 3.0 | 0.00 | 0.00 | 0.01 | ||
| 20260901222744 | 85 | 156 | 4.0 | 4.0 | 0.00 | 0.00 | 0.01 | ||
| 20260901222241 | 86 | 117 | 5.0 | 4.0 | 0.00 | 0.00 | 0.01 | ||
| 20260901221742 | 86 | 142 | 5.0 | 5.0 | 0.00 | 0.00 | 0.01 | ||
| 20260901221239 | 86 | 142 | 6.0 | 5.0 | 0.00 | 0.00 | 0.01 | ||
| 20260901220740 | 87 | 143 | 5.0 | 5.0 | 0.00 | 0.00 | 0.01 | ||
| 20260901214737 | 87 | 210 | 3.0 | 3.0 | 0.00 | 0.00 | 0.01 | ||
| 20260901213735 | 87 | 156 | 5.0 | 6.0 | 0.00 | 0.00 | 0.01 | ||
| 20260901213233 | 87 | 125 | 4.0 | 4.0 | 0.00 | 0.00 | 0.01 | ||
| 20260901212734 | 87 | 149 | 6.0 | 7.0 | 0.00 | 0.00 | 0.01 | ||
| 20260901212232 | 89 | 156 | 6.0 | 7.0 | 0.00 | 0.00 | 0.01 | ||
| 20260901211733 | 89 | 141 | 4.0 | 6.0 | 0.00 | 0.00 | 0.01 | ||
| 20260901210732 | 88 | 124 | 7.0 | 5.0 | 0.00 | 0.00 | 0.01 | ||
| 20260901210230 | 89 | 138 | 1.0 | 4.0 | 0.00 | 0.00 | 0.01 |